Tracking 22081 objects as of 4-Dec-2020
HD Live streaming from Space Station
objects crossing your sky now

ARIANE 5 DEB (SYLDA)

Track ARIANE 5 DEB (SYLDA) now!


NORAD ID: 43177
Int'l Code: 2018-012D
Perigee: 328.8 km
Apogee: 41,102.6 km
Inclination: 20.9 °
Period: 739.4 minutes
Semi major axis: 27086 km
RCS: Unknown
Launch date: January 25, 2018
Source: France (FR)
Launch site: FRENCH GUIANA (FRGUI)

Note: This is SATELLITE DEBRIS
aabbcc
Your satellite tracking list
Your tracking list is empty




NASA's NSSDC Master Catalog

Two Line Element Set (TLE):
1 43177U 18012D   20338.48383257  .00001524  00000-0  20044-2 0  9994
2 43177  20.8535 267.2727 7526528  92.3870 346.6364  1.94746254 19806
Source of the keplerian elements: AFSPC